Cairo, Egypt

10:02 AM EET on August 22, 2017 (GMT +0200)
Cairo International Airport

Weather History for HECA - November, 2011

Change the Weather History Date:

Tuesday, November 8, 2011

  Actual Average Record
Temperature  
Mean Temperature 66 °F -  
Max Temperature 75 °F 72 °F 87 °F (2014)
Min Temperature 58 °F 55 °F 39 °F (1999)
Cooling Degree Days 2    
Growing Degree Days 16 (Base 50)    
Moisture  
Dew Point 52 °F    
Average Humidity 61    
Maximum Humidity 88    
Minimum Humidity 30    
Precipitation  
Precipitation 0.00 in 0.00 in - ()
Sea Level Pressure  
Sea Level Pressure 30.16 in    
Wind  
Wind Speed 6 mph ()    
Max Wind Speed 15 mph    
Max Gust Speed -    
Visibility 4.7 miles    
Events      
Averages and records for this station are not official NWS values.
T = Trace of Precipitation, MM = Missing Value Source: Averaged Metar Reports

Daily Weather History Graph

Daily Weather History Graph

Search for Another Location

Airport or City:

Trip Planner

Search our weather history database for the weather conditions in past years. The results will help you decide how hot, cold, wet, or windy it might be!

Date:

Astronomy

Nov. 08, 2011 Rise Set
Actual Time 6:13 AM EET 5:02 PM EET
Civil Twilight 5:48 AM EET 5:27 PM EET
Nautical Twilight 5:19 AM EET 5:55 PM EET
Astronomical Twilight 4:51 AM EET 6:24 PM EET
Moon 3:27 PM EET (11/8) 3:59 AM EET (11/8)
Length of Visible Light 11h 38m
Length of Day
10h 48m
Waxing Gibbous, 95% of the Moon is Illuminated
Nov 8
Waxing Gibbous
Nov 10
Full
Nov 18
Last Quarter
Nov 25
New
Dec 2
First Quarter

Hourly Weather History & Observations

Time (EET) Temp. Dew Point Humidity Pressure Visibility Wind Dir Wind Speed Gust Speed Precip Events Conditions
12:00 AM 62.6 °F 51.8 °F 68% 30.18 in - ENE 4.6 mph - N/A   Clear
12:30 AM 62.6 °F 51.8 °F 68% 30.18 in - ENE 4.6 mph - N/A   Clear
1:00 AM 62.6 °F 53.6 °F 72% 30.18 in - NNE 5.8 mph - N/A   Clear
1:30 AM 62.6 °F 53.6 °F 72% 30.18 in - NNE 5.8 mph - N/A   Clear
2:00 AM 60 °F 52 °F 69% 30.19 in 6 mi NNE 3.5 mph - -  
2:00 AM 60.8 °F 53.6 °F 77% 30.18 in - NNE 3.5 mph - N/A   Clear
2:30 AM 59.0 °F 51.8 °F 77% 30.18 in - ENE 3.5 mph - N/A   Clear
3:00 AM 59.0 °F 53.6 °F 82% 30.18 in - East 3.5 mph - N/A   Clear
3:30 AM 59.0 °F 53.6 °F 82% 30.18 in 3.7 mi East 3.5 mph - N/A   Unknown
4:00 AM 59.0 °F 51.8 °F 77% 30.18 in 3.7 mi East 3.5 mph - N/A   Unknown
4:30 AM 59.0 °F 51.8 °F 77% 30.18 in 3.7 mi East 3.5 mph - N/A   Unknown
5:00 AM 59.0 °F 53.6 °F 82% 30.18 in 3.7 mi East 4.6 mph - N/A   Unknown
5:30 AM 57.2 °F 53.6 °F 88% 30.18 in 3.7 mi East 5.8 mph - N/A   Unknown
6:00 AM 57.2 °F 53.6 °F 88% 30.18 in 3.7 mi East 5.8 mph - N/A   Unknown
6:30 AM 59.0 °F 55.4 °F 88% 30.18 in 3.7 mi East 8.1 mph - N/A   Unknown
7:00 AM 60.8 °F 55.4 °F 82% 30.21 in 3.7 mi North 2.3 mph - N/A   Unknown
7:30 AM 62.6 °F 55.4 °F 77% 30.21 in 3.7 mi North 3.5 mph - N/A   Unknown
8:00 AM 67 °F 56 °F 61% 30.22 in 4 mi Calm Calm - -   Mist
8:00 AM 66.2 °F 57.2 °F 73% 30.21 in 3.7 mi Calm Calm - N/A   Unknown
8:30 AM 64.4 °F 57.2 °F 77% 30.21 in 3.7 mi NNE 3.5 mph - N/A   Unknown
9:00 AM 66.2 °F 57.2 °F 73% 30.21 in 3.7 mi Calm Calm - N/A   Unknown
9:30 AM 68.0 °F 55.4 °F 64% 30.21 in 3.7 mi NNE 6.9 mph - N/A   Unknown
10:00 AM 68.0 °F 55.4 °F 64% 30.21 in 3.7 mi NE 9.2 mph - N/A   Partly Cloudy
10:30 AM 69.8 °F 53.6 °F 56% 30.18 in 6.2 mi NE 15.0 mph - N/A   Scattered Clouds
11:00 AM 71.6 °F 53.6 °F 53% 30.18 in 6.2 mi NE 8.1 mph - N/A   Scattered Clouds
11:30 AM 71.6 °F 51.8 °F 50% 30.15 in 6.2 mi NNE 13.8 mph - N/A   Scattered Clouds
12:00 PM 73.4 °F 50.0 °F 44% 30.15 in 6.2 mi NE 13.8 mph - N/A   Scattered Clouds
12:30 PM 73.4 °F 51.8 °F 47% 30.12 in 6.2 mi NNE 15.0 mph - N/A   Scattered Clouds
1:00 PM 73.4 °F 51.8 °F 47% 30.12 in 6.2 mi North 12.7 mph - N/A   Partly Cloudy
1:30 PM 75.2 °F 50.0 °F 41% 30.12 in 6.2 mi NNE 12.7 mph - N/A   Partly Cloudy
2:00 PM 76 °F 51 °F 30% 30.12 in 6 mi NNE 8.1 mph - -  
2:00 PM 75.2 °F 50.0 °F 41% 30.12 in - NNE 8.1 mph - N/A   Clear
2:30 PM 75.2 °F 50.0 °F 41% 30.12 in - North 13.8 mph - N/A   Clear
3:00 PM 75.2 °F 50.0 °F 41% 30.12 in - North 8.1 mph - N/A   Clear
3:30 PM 75.2 °F 50.0 °F 41% 30.09 in - North 13.8 mph - N/A   Clear
4:00 PM 75.2 °F 50.0 °F 41% 30.12 in - North 10.4 mph - N/A   Clear
4:30 PM 73.4 °F 48.2 °F 41% 30.12 in - NW 15.0 mph - N/A   Clear
5:00 PM 75.2 °F 50.0 °F 41% 30.12 in - NNE 12.7 mph - N/A   Clear
5:30 PM 73.4 °F 50.0 °F 44% 30.12 in - NNE 11.5 mph - N/A   Clear
6:00 PM 73.4 °F 50.0 °F 44% 30.12 in - NNE 11.5 mph - N/A   Clear
6:30 PM 71.6 °F 51.8 °F 50% 30.12 in - NNE 11.5 mph - N/A   Clear
7:00 PM 69.8 °F 51.8 °F 53% 30.15 in - NNE 12.7 mph - N/A   Clear
7:30 PM 68.0 °F 51.8 °F 56% 30.15 in - NNE 12.7 mph - N/A   Clear
8:00 PM 69 °F 51 °F 42% 30.17 in 6 mi NNE 9.2 mph - -  
8:00 PM 68.0 °F 51.8 °F 56% 30.15 in - NNE 11.5 mph - N/A   Clear
8:30 PM 68.0 °F 51.8 °F 56% 30.15 in - NNE 10.4 mph - N/A   Clear
9:00 PM 66.2 °F 51.8 °F 60% 30.15 in - NNE 8.1 mph - N/A   Clear
9:30 PM 64.4 °F 51.8 °F 64% 30.15 in - NE 9.2 mph - N/A   Clear
10:00 PM 62.6 °F 51.8 °F 68% 30.15 in - NE 5.8 mph - N/A   Clear
10:30 PM 62.6 °F 51.8 °F 68% 30.15 in - ENE 6.9 mph - N/A   Clear
11:00 PM 62.6 °F 51.8 °F 68% 30.15 in - ENE 9.2 mph - N/A   Clear
11:30 PM 60.8 °F 51.8 °F 72% 30.15 in - ENE 9.2 mph - N/A   Clear